FW2518 Weather Reports


time (UTC)temp
C
wind
direction
speed
KPH
gust
KPH
rain 1hr
cm
rain 24hr
cm
rain mn
cm
humidity
%
barometer
mb
20260906031532 22 314 0.0 1.6 0.00 0.79 0.79 45 1013.3
20260906030033 22 312 0.0 0.0 0.00 0.79 0.79 47 1013.2
20260906024535 22 360 3.2 6.4 0.00 0.79 0.79 51 1013.0
20260906023032 22 317 3.2 8.0 0.00 0.79 0.79 54 1012.8
20260906021532 22 313 4.8 6.4 0.00 0.79 0.79 54 1012.5
20260906020032 22 302 1.6 3.2 0.00 0.79 0.79 55 1012.6
20260906014543 22 302 3.2 4.8 0.00 0.79 0.79 55 1012.6
20260906013033 23 303 0.0 0.0 0.00 0.79 0.79 54 1012.5
20260906011530 23 303 0.0 0.0 0.00 0.79 0.79 55 1012.3
20260906010030 23 303 0.0 0.0 0.00 0.79 0.79 58 1012.0
20260906004530 23 303 0.0 1.6 0.00 0.79 0.79 58 1012.1
20260906003030 24 302 1.6 3.2 0.00 0.79 0.79 59 1012.1
20260906001529 24 302 0.0 3.2 0.00 0.79 0.79 61 1011.7
20260906000028 25 302 1.6 4.8 0.00 0.79 0.79 63 1011.5
20260905234532 26 302 1.6 6.4 0.00 0.79 0.79 61 1011.4
20260905233028 27 301 1.6 3.2 0.00 0.79 0.79 60 1011.1
20260905231527 27 302 0.0 3.2 0.00 0.79 0.79 59 1011.3
20260905230028 28 301 0.0 1.6 0.00 0.79 0.79 58 1011.2
20260905224534 27 301 1.6 4.8 0.00 0.79 0.79 58 1011.1
20260905223033 27 281 1.6 4.8 0.00 0.79 0.79 57 1011.1
20260905221527 27 257 3.2 6.4 0.00 0.79 0.79 56 1011.1
20260905220027 27 360 3.2 6.4 0.00 0.79 0.79 57 1011.1
20260905214526 26 360 6.4 12.9 0.00 0.79 0.79 56 1011.3
20260905213025 25 250 3.2 11.3 0.00 0.79 0.79 55 1011.6
20260905211524 24 187 3.2 6.4 0.00 0.79 0.79 50 1011.7
20260905210023 23 256 1.6 9.7 0.00 0.79 0.79 50 1011.8
20260905204522 23 251 1.6 9.7 0.00 0.79 0.79 50 1012.2
20260905203022 22 284 3.2 6.4 0.00 0.79 0.79 51 1012.5
20260905201522 22 280 1.6 4.8 0.00 0.79 0.79 51 1012.7
20260905200025 21 299 8.0 16.1 0.03 0.79 0.79 51 1012.4
20260905194524 21 305 0.0 12.9 0.23 0.79 0.79 54 1012.1
20260905193023 20 215 3.2 4.8 0.79 0.79 0.79 58 1012.6
20260905191523 20 175 4.8 11.3 0.79 0.79 0.79 59 1013.0
20260905190039 21 289 3.2 16.1 0.79 0.79 0.79 63 1011.8
20260905184517 22 290 6.4 19.3 0.61 0.61 0.61 62 1013.5
20260905183016 28 9 25.7 40.2 0.08 0.08 0.08 47 1013.5
20260905181516 33 355 12.9 40.2 0.00 0.00 0.00 41 1011.9
20260905180013 33 322 9.7 16.1 0.00 0.00 0.00 40 1011.9
20260905174506 33 360 6.4 14.5 0.00 0.00 0.00 41 1012.4
20260905173003 33 295 0.0 9.7 0.00 0.00 0.00 46 1012.9
20260905171503 33 281 8.0 12.9 0.00 0.00 0.00 41 1013.0
20260905170003 33 269 3.2 8.0 0.00 0.00 0.00 42 1013.1
20260905164502 33 5 6.4 14.5 0.00 0.00 0.00 43 1013.4
20260905163001 33 40 0.0 6.4 0.00 0.00 0.00 43 1013.6
20260905161501 32 25 4.8 14.5 0.00 0.00 0.00 41 1013.7
20260905160116 32 265 0.0 0.0 0.00 0.00 0.00 47 1013.7
20260905154556 32 333 0.0 0.0 0.00 0.00 0.00 48 1014.0
20260905153100 31 252 0.0 0.0 0.00 0.00 0.00 46 1013.9
20260905151550 31 259 0.0 0.0 0.00 0.00 0.00 43 1013.7
20260905150051 31 149 0.0 0.0 0.00 0.00 0.00 44 1014.0
20260905144547 30 268 0.0 0.0 0.00 0.00 0.00 47 1014.1
20260905143044 30 247 0.0 0.0 0.00 0.00 0.00 47 1014.0
20260905141552 29 242 0.0 0.0 0.00 0.00 0.00 47 1013.9
20260905140042 28 242 0.0 0.0 0.00 0.00 0.00 48 1014.0
20260905134541 28 160 0.0 0.0 0.00 0.00 0.00 49 1014.1
20260905133039 28 142 0.0 0.0 0.00 0.00 0.00 50 1014.2
20260905131546 27 81 0.0 0.0 0.00 0.00 0.00 50 1014.2
20260905130038 26 46 0.0 0.0 0.00 0.00 0.00 51 1014.3
20260905124526 25 46 0.0 0.0 0.00 0.00 0.00 45 1014.3
20260905123021 23 46 0.0 0.0 0.00 0.00 0.00 44 1014.2
20260905121521 23 46 0.0 0.0 0.00 0.00 0.00 47 1014.2
20260905120019 22 335 0.0 0.0 0.00 0.00 0.00 49 1014.1
20260905114519 22 334 0.0 0.0 0.00 0.00 0.00 47 1014.0
20260905113018 22 335 0.0 0.0 0.00 0.00 0.00 46 1013.9
20260905111523 22 335 0.0 0.0 0.00 0.00 0.00 45 1013.6
20260905110016 22 335 0.0 0.0 0.00 0.00 0.00 45 1013.4
20260905104514 22 334 0.0 0.0 0.00 0.00 0.00 44 1013.0
20260905103016 22 335 0.0 0.0 0.00 0.00 0.00 43 1013.0
20260905101516 22 335 0.0 0.0 0.00 0.00 0.00 43 1012.9
20260905100019 22 335 0.0 0.0 0.00 0.00 0.00 43 1012.9
20260905094514 22 335 0.0 0.0 0.00 0.00 0.00 44 1012.9
20260905093013 22 335 0.0 0.0 0.00 0.00 0.00 43 1012.6
20260905091512 22 335 0.0 0.0 0.00 0.00 0.00 44 1012.8
20260905090013 22 335 0.0 0.0 0.00 0.00 0.00 44 1012.9
20260905084508 22 335 0.0 0.0 0.00 0.00 0.00 44 1013.1
20260905083006 23 335 0.0 0.0 0.00 0.00 0.00 44 1013.3
20260905081504 23 335 0.0 0.0 0.00 0.00 0.00 44 1013.5
20260905080005 23 335 0.0 0.0 0.00 0.00 0.00 44 1013.5
20260905074507 23 335 0.0 0.0 0.00 0.00 0.00 44 1013.4
20260905073002 23 335 0.0 0.0 0.00 0.00 0.00 44 1013.5
20260905070104 23 335 0.0 0.0 0.00 0.00 0.00 47 1013.9
20260905064557 23 334 0.0 0.0 0.00 0.00 0.00 47 1014.1
20260905063057 24 333 0.0 0.0 0.00 0.00 0.00 48 1014.2
20260905060057 24 349 0.0 0.0 0.00 0.00 0.00 56 1014.6
20260905054556 24 349 0.0 0.0 0.00 0.00 0.00 56 1014.8
20260905053136 24 349 0.0 0.0 0.00 0.00 0.00 57 1014.8
20260905050055 25 350 0.0 0.0 0.00 0.00 0.00 60 1014.6
20260905044555 25 350 0.0 0.0 0.00 0.00 0.00 61 1014.7
20260905043055 25 350 0.0 0.0 0.00 0.00 0.00 63 1014.7
20260905040054 26 9 0.0 0.0 0.00 0.00 0.00 62 1014.7
20260905034554 25 111 0.0 0.0 0.00 0.00 0.00 63 1014.4
20260905033101 25 111 0.0 0.0 0.00 0.00 0.00 63 1014.4